NWS Melbourne » East Central Florida Hourly Weather Roundup

MIARWRMLB 000
TTAA00 KMLB 291811
HOURLY WEATHER ROUNDUP AROUND FLORIDA
NATIONAL WEATHER SERVICE OFFICE MELBOURNE FL
200 PM EDT TUE JUL 29 2014
  
CITY           SKY/WX    TMP DP  RH WIND       PRES   REMARKS
MELBOURNE      CLOUDY    83  73  72 SW12      29.96R                  
FORT PIERCE    PTSUNNY   85  68  56 W21G28    29.97S                  
ORLANDO INTL   CLOUDY    85  72  65 W10       29.97S                  
DAYTONA BEACH  TSTM      76  73  91 W12G18    29.93F FOG              
VERO BEACH     TSTM      83  71  67 W29G44    29.98R                  
$$
...ELSEWHERE ACROSS CENTRAL FLORIDA...
  
CITY           SKY/WX    TMP DP  RH WIND       PRES   REMARKS
PATRICK AFB    CLOUDY    84  76  77 NW10      29.96S                  
JFK SPACE CTR  CLOUDY    80  80 100 W3        29.96S                  
CAPE CANAVERAL CLOUDY    81  74  77 W8        29.95F                  
TITUSVILLE     PTSUNNY   81  75  83 W12       29.97F                  
ORLANDO EXEC   CLOUDY    86  74  67 W10       29.96F                  
LEESBURG       MOSUNNY   88  77  69 W9        29.96S HX 100           
SANFORD        CLOUDY    81  73  76 SW10      29.95F                  
WINTER HAVEN   CLOUDY    86  76  71 W8        30.00R                  
KISSIMMEE      MOSUNNY   88  77  70 W8        29.98R HX 100           
OKEECHOBEE     TSTM      73  72  94 MISG      30.01R                  
TAMPA          CLOUDY    85  74  69 W10       29.98F                  
$$
...NORTHERN FLORIDA...
  
CITY           SKY/WX    TMP DP  RH WIND       PRES   REMARKS
DELAND         PTSUNNY   77  73  88 MISG      29.95F                  
NEW SMYRNA BCH LGT RAIN  75 N/A N/A W12       29.95S                  
ORMOND BEACH   PTSUNNY   82  72  69 W12G29    29.96R THUNDER          
PALM COAST     MOSUNNY   91  73  55 MISG      29.92  HX 100           
ST AUGUSTINE   SUNNY     93  70  46 VRB7      29.92F HX  99           
OCALA          MOSUNNY   91  70  49 W12G17    29.95S                  
GAINESVILLE    MOSUNNY   90  73  57 W9G18     29.93F HX  98           
JACKSONVILLE   MOSUNNY   91  66  43 SW9       29.90F                  
TALLAHASSEE    MOSUNNY   91  64  40 W9        29.96F                  
$$
...ALONG THE SOUTHEAST COAST TO THE KEYS...
  
CITY           SKY/WX    TMP DP  RH WIND       PRES   REMARKS
STUART         PTSUNNY   91  72  52 W14G20    29.99S HX  98           
WEST PALM BCH  PTSUNNY   93  73  52 W10       29.97F HX 102           
MIAMI          MOSUNNY   91  73  55 SW8       30.02F HX  99           
KEY WEST       MOSUNNY   90  73  57 W9        30.04F HX  98           
$$
...MARINE REPORTS...
  
STATION/POSITION TIME  TEMP    WIND        PRES    WAVE   SWELL
                       AIR SEA DIR/SP/G            HT/PER HT/PER/DIR
                 (UTC) (F)     (DEG/KT/KT) (MB)    (FT/S) (FT/S/D)
ST AUGUSTINE FP  1800   83      90/  8/  8 1013.8F
20NM E CAPE CANA 1800   78 83  300/  8/ 10 1014.7F   2/ 3   2/120/ 9
120 E NEW SMYRNA 1800   84 84  250/ 12/ 14 1014.5R   5/ 6   3/250/ 6
TRIDENT PIER     1800   82 85  280/  6/  9 1014.3R
4NM E PORT CANAV 1800      83                N/A     1/ 8
6NM NE FPR INLET 1800      84                N/A     1/ 9
SETTLEMENT PT GB 1800   85     230/ 10/ 11 1016.7F
$$
  
 


USA.gov is the U.S. government's official web portal to all federal, state and local government web resources and services.